Terug naar catalogus

FENGYUN 1C DEB

ActiefSSO
NORAD 38158·DEBRIS·🇨🇳 China

Gelanceerd May 10, 1999 vanaf Taiyuan Satellite Launch Center

Loading…

Volgende Passages (komende 24 uur)

TLE

VerouderendSource: Space-Track

Epoch: Sep 8, 2026, 07:23 UTC

1 38158U 99025ERF 26251.30802834  .00000781  00000-0  76375-3 0  9991
2 38158  99.2664 274.5002 0214967 102.5439 259.9845 13.72283541605791

Volg FENGYUN 1C DEB in realtime met AllMySat

Download on the App Store